Weather History for Toledo Metcalf, OH

Change the Weather History Date:

Tuesday, January 29, 2013

  Actual Average (KTOL) Record (KTOL)
Temperature  
Mean Temperature 48 °F 26 °F  
Max Temperature 59 °F 33 °F 62 °F (1914)
Min Temperature 37 °F 18 °F -9 °F (1963)
Degree Days  
Heating Degree Days 17 39  
Month to date heating degree days 1149  
Since 1 July heating degree days 3474  
Cooling Degree Days 0 0  
Month to date cooling degree days 0  
Year to date cooling degree days 0  
Moisture  
Dew Point 47 °F    
Average Humidity 92    
Maximum Humidity 100    
Minimum Humidity 82    
Precipitation  
Precipitation 0.02 in 0.07 in 0.82 in (1969)
Month to date precipitation 1.93  
Year to date precipitation 1.93  
Snow  
Snow 0.00 in 0.40 in - ()
Month to date snowfall 10.8  
Since 1 July snowfall 20.3  
Snow Depth -    
Sea Level Pressure  
Sea Level Pressure 29.82 in    
Wind  
Wind Speed 9 mph (SSE)    
Max Wind Speed 21 mph    
Max Gust Speed 23 mph    
Visibility 4 miles    
Events Fog , Rain    
T = Trace of Precipitation, MM = Missing Value Source: NWS Daily Summary

Daily Weather History Graph

Daily Weather History Graph

Search for Another Location

Airport:

Trip Planner

Search our weather history database for the weather conditions in past years. The results will help you decide how hot, cold, wet, or windy it might be!

Date:

Astronomy

Jan. 29, 2013 Rise Set
Actual Time 7:48 AM EST 5:46 PM EST
Civil Twilight 7:18 AM EST 6:15 PM EST
Nautical Twilight 6:45 AM EST 6:49 PM EST
Astronomical Twilight 6:12 AM EST 7:21 PM EST
Moon 8:44 PM EST (1/29) 8:42 AM EST (1/29)
Length of Visible Light 10h 57m
Length of Day
9h 57m
Waning Gibbous, 94% of the Moon is Illuminated
Jan 29
Waning Gibbous
Feb 3
Last Quarter
Feb 10
New
Feb 17
First Quarter
Feb 25
Full

Hourly Weather History & Observations

Time (EST) Temp. Windchill Dew Point Humidity Pressure Visibility Wind Dir Wind Speed Gust Speed Precip Events Conditions
12:53 AM 39.9 °F 35.1 °F 39.9 °F 100% 30.03 in 0.2 mi ENE 6.9 mph - N/A Fog Fog
1:53 AM 37.9 °F 32.7 °F 37.9 °F 100% 30.01 in 0.8 mi East 6.9 mph - N/A   Mist
2:53 AM 37.9 °F 32.7 °F 37.0 °F 97% 30.00 in 0.8 mi ESE 6.9 mph - N/A   Mist
3:05 AM 37.4 °F 32.1 °F 37.4 °F 100% 29.98 in 1.0 mi East 6.9 mph - N/A   Mist
3:16 AM 37.4 °F 32.1 °F 37.4 °F 100% 29.98 in 1.0 mi ESE 6.9 mph - N/A   Mist
3:53 AM 37.9 °F 32.1 °F 37.0 °F 97% 29.96 in 1.0 mi ESE 8.1 mph - N/A   Mist
4:10 AM 37.4 °F 32.1 °F 37.4 °F 100% 29.94 in 1.2 mi ESE 6.9 mph - N/A   Overcast
4:12 AM 37.4 °F 31.4 °F 37.4 °F 100% 29.94 in 1.0 mi ESE 8.1 mph - N/A   Overcast
4:26 AM 37.4 °F 32.1 °F 37.4 °F 100% 29.93 in 0.8 mi ESE 6.9 mph - N/A   Mist
4:53 AM 39.0 °F 33.4 °F 37.9 °F 96% 29.92 in 0.5 mi ESE 8.1 mph - 0.01 in Fog , Rain Light Rain
5:53 AM 39.0 °F 35.7 °F 39.0 °F 100% 29.91 in 0.2 mi ESE 4.6 mph - 0.00 in Fog Fog
6:46 AM 39.2 °F 35.0 °F 39.2 °F 100% 29.87 in 0.2 mi ESE 5.8 mph - N/A Fog Fog
6:53 AM 39.9 °F 35.8 °F 39.9 °F 100% 29.87 in 0.2 mi SE 5.8 mph - N/A Fog Fog
7:10 AM 46.4 °F 41.9 °F 46.4 °F 100% 29.86 in 1.2 mi South 9.2 mph - N/A   Overcast
7:16 AM 48.2 °F - 48.2 °F 100% 29.86 in 3.0 mi South 10.4 mph - N/A   Overcast
7:31 AM 50.0 °F - 48.2 °F 94% 29.86 in 4.0 mi South 9.2 mph - N/A   Overcast
7:53 AM 50.0 °F - 48.9 °F 96% 29.86 in 4.0 mi SSW 10.4 mph - N/A   Overcast
8:53 AM 53.1 °F - 50.0 °F 89% 29.85 in 5.0 mi SSW 13.8 mph - N/A   Mist
9:53 AM 53.1 °F - 51.1 °F 93% 29.85 in 4.0 mi SSW 13.8 mph - 0.00 in   Overcast
10:53 AM 54.0 °F - 52.0 °F 93% 29.85 in 4.0 mi SSW 15.0 mph - N/A   Mist
11:14 AM 55.4 °F - 51.8 °F 88% 29.84 in 5.0 mi SSW 15.0 mph 21.9 mph N/A   Overcast
11:53 AM 55.0 °F - 52.0 °F 89% 29.84 in 4.0 mi SSW 16.1 mph - N/A   Overcast
12:53 PM 55.9 °F - 53.1 °F 90% 29.81 in 5.0 mi SSW 13.8 mph - N/A   Overcast
1:53 PM 57.9 °F - 54.0 °F 87% 29.78 in 5.0 mi SSW 13.8 mph - N/A   Overcast
2:53 PM 59.0 °F - 54.0 °F 83% 29.77 in 6.0 mi SSW 17.3 mph - N/A   Haze
3:23 PM 59.0 °F - 53.6 °F 82% 29.76 in 6.0 mi South 16.1 mph - 0.00 in   Haze
3:53 PM 59.0 °F - 54.0 °F 83% 29.76 in 6.0 mi South 12.7 mph - 0.00 in   Haze
4:53 PM 59.0 °F - 54.0 °F 83% 29.75 in 6.0 mi SSW 16.1 mph 23.0 mph N/A   Haze
5:11 PM 59.0 °F - 53.6 °F 82% 29.75 in 7.0 mi SSW 15.0 mph 23.0 mph N/A   Overcast
5:53 PM 57.9 °F - 53.1 °F 84% 29.74 in 8.0 mi SSW 12.7 mph - N/A   Overcast
6:53 PM 57.9 °F - 53.1 °F 84% 29.73 in 9.0 mi SSW 11.5 mph - 0.01 in   Overcast
7:16 PM 57.2 °F - 53.6 °F 88% 29.72 in 9.0 mi South 9.2 mph - N/A   Overcast
7:53 PM 55.0 °F - 52.0 °F 89% 29.70 in 8.0 mi South 8.1 mph - N/A   Overcast
8:51 PM 55.4 °F - 51.8 °F 88% 29.66 in 8.0 mi South 6.9 mph - N/A   Overcast
8:53 PM 55.0 °F - 52.0 °F 89% 29.66 in 8.0 mi South 8.1 mph - N/A   Overcast
9:53 PM 55.9 °F - 52.0 °F 87% 29.61 in 9.0 mi South 11.5 mph - N/A   Overcast
10:53 PM 57.0 °F - 52.0 °F 83% 29.55 in 10.0 mi South 18.4 mph - N/A   Scattered Clouds
11:53 PM 57.9 °F - 53.1 °F 84% 29.50 in 10.0 mi South 20.7 mph - N/A   Clear